Location: Dos Palmas
(32.4468°N, 116.8732°W)
Time: 02:19:16
(UTC+00:00)

Cosmos 2278 Rocket - Pass Details

Date: 20 June 2021
Orbit: 840 x 846 km, 71.0° (Epoch: 27 July)

Event Time Altitude Azimuth Distance (km) Brightness Sun altitude
Rises 07:40:29 0° 327° (NNW) 3,405 6.1 -34.1°
Reaches altitude 10° 07:43:11 10° 317° (NW) 2,467 5.1 -34.1°
Enters shadow 07:45:48 23° 295° (WNW) 1,725 4.0 -34.1°
